Regional Weather Roundup
Issued by NWS Sterling, VA

Home | Current Version | Previous Version | Graphics & Text | Print | Product List | Glossary On
Versions: 1 2 3 4 5 6 7 8 9 10 11 12 13 14 15 16 17 18 19 20 21 22 23 24 25 26 27 28 29 30 31 32 33 34 35 36 37 38 39 40 41 42 43 44 45 46 47 48 49 50
000
ASUS41 KLWX 102010
RWRLWX

REGIONAL WEATHER ROUNDUP
NATIONAL WEATHER SERVICE BALTIMORE MD/WASHINGTON DC
400 PM EDT THU JUL 10 2014

Note: "FAIR" indicates few or no clouds below 12,000 feet
with no significant weather and/or obstructions to visibility.
 TC=TEMPERATURE CELSIUS

 * =Non NWS site. Station does not report precipitation (e.g. rain,
    snow, etc.), thunder, or fog.

DCZ001-MDZ009-015-VAZ040>042-051-053>054-102100-
WASHINGTON METRO

CITY           SKY/WX    TMP DP  RH WIND       PRES   REMARKS
WASHINGTON NAT PTSUNNY   84  66  54 SE9       30.05S
DULLES         PTSUNNY   84  62  47 CALM      30.05S
ANDREWS AFB    PTSUNNY   80  66  62 SE5       30.06F
FT BELVOIR     DRIZZLE   80  66  62 SE6       30.06R
QUANTICO       LGT RAIN  81  73  76 S9        30.06S
COLLEGE PARK*  MOSUNNY   84  72  65 E7        30.05S
LEESBURG*      MOSUNNY   88  61  40 NE3       30.06S
GAITHERSBURG*  PTSUNNY   82  68  61 SE9       30.09S

$$

MDZ006>007-011-014-102100-
BALTIMORE METRO

CITY           SKY/WX    TMP DP  RH WIND       PRES   REMARKS
BWI AIRPORT    PTSUNNY   84  66  54 NE10      30.05F
MD SCIENCE CTR   N/A     78  67  68 MISG      30.06F
MARTIN STATE   PTSUNNY   82  72  69 NE3       30.08S
ANNAPOLIS      CLOUDY    80  71  74 NE9       30.05F
FORT MEADE*    PTSUNNY   79  68  69 NE6       30.08S

$$

MDZ012-015-019>023-102100-
MARYLAND EASTERN SHORE

CITY           SKY/WX    TMP DP  RH WIND       PRES   REMARKS
OCEAN CITY     CLOUDY    76  72  87 S3        30.06S FOG
SALISBURY      LGT RAIN  82  73  74 S6        30.06R
BAY BRIDGE AP*   N/A     79  70  73 NE7       30.06S
CAMBRIDGE*     CLOUDY    79  70  73 S3        30.05S
EASTON*        CLOUDY   N/A N/A N/A NE7       30.09R

$$

MDZ017>025-102100-
SOUTHERN MARYLAND

CITY           SKY/WX    TMP DP  RH WIND       PRES   REMARKS
PATUXENT RIVER LGT RAIN  77  71  82 SE3       30.06S
ST INIGOES     LGT RAIN  78  70  76 CALM      30.06S
LEONARDTOWN*   CLOUDY    77  70  78 MISG        N/A

$$

MDZ003>005-102100-
NORTH CENTRAL MARYLAND

CITY           SKY/WX    TMP DP  RH WIND       PRES   REMARKS
FREDERICK*     SUNNY     88  64  45 CALM      30.08
HAGERSTOWN APT PTSUNNY   84  58  40 VRB3      30.07S
WESTMINSTER*   MOSUNNY   84  63  48 NE5       30.08S

$$

MDZ501>502-102100-
WESTERN MARYLAND

CITY           SKY/WX    TMP DP  RH WIND       PRES   REMARKS
OAKLAND*       PTSUNNY   73  52  46 N3        30.18S
CUMBERLAND*    PTSUNNY   86  64  48 NE3       30.10F

$$

VAZ025>031-102100-
SHENANDOAH VALLEY

CITY           SKY/WX    TMP DP  RH WIND       PRES   REMARKS
WINCHESTER*    RAIN      79  63  57 NW7       30.08R
STAUNTON*      MOSUNNY   81  63  53 S9        30.10S

$$

WVZ021-048>050-054>055-102100-
EASTERN WEST VIRGINIA PANHANDLE

CITY           SKY/WX    TMP DP  RH WIND       PRES   REMARKS
MARTINSBURG    PTSUNNY   87  56  34 NE5       30.06F
PETERSBURG*    PTSUNNY   79  56  44 E7        30.08F

$$

VAZ036>039-050-102100-
CENTRAL FOOTHILLS

CITY           SKY/WX    TMP DP  RH WIND       PRES   REMARKS
CHARLOTTESVILL PTSUNNY   81  67  62 S6        30.07S
ORANGE*        CLOUDY    79  68  69 CALM      30.08S

$$

VAZ055>057-102100-
NORTH AND CENTRAL PIEDMONT

CITY           SKY/WX    TMP DP  RH WIND       PRES   REMARKS
FREDERICKSBRG* CLOUDY    83  72  70 SE6       30.05S
STAFFORD*      LGT RAIN  81  71  70 SE6       30.09F

$$

NCZ024-NYZ072-PAZ021-071-VAZ022-071-102100-
OTHER REGIONAL OBSERVATIONS

CITY           SKY/WX    TMP DP  RH WIND       PRES   REMARKS
NEW YORK CITY  SUNNY     81  62  52 VRB3      30.11F
PHILADELPHIA   MOSUNNY   86  59  39 E9        30.07S
PITTSBURGH     PTSUNNY   79  58  48 N9        30.11F
ROANOKE        MOSUNNY   83  61  47 CALM      30.10F
RICHMOND       LGT RAIN  77  72  84 SW8       30.08S
RALEIGH        PTSUNNY   83  70  64 N9G16     30.05S

$$

ANZ530>537-102100-
MARINE OBSERVATIONS

STATION/POSITION TIME  TEMP    WIND        PRES
                       AIR SEA DIR/SP/G
                 (UTC) (F)     (DEG/KT/KT) (MB)
THOMAS PT LIGHT  2000   79 78   30/  6/  7 1018.2F
BALT KEY BRIDGE  2000   80      10/  9/ 11 1017.7F
COVE POINT       2000   77     360/  1/  2 1017.7F
LEWISETTA        2000   77 80  120/  4/  5 1017.9R
SOLOMONS ISLAND  2000      80                N/A
PINEY POINT      2000           20/  1/  2   N/A

$$




USA.gov is the U.S. government's official web portal to all federal, state and local government web resources and services.